[Iaude] MPEC G105: 2024 GM1 [a=1.16,e=0.26,i=13.8,H=25.5]
    mpec at cfa.harvard.edu 
    mpec at cfa.harvard.edu
       
    Tue Apr  9 01:25:46 EDT 2024
    
    
  
M.P.E.C. 2024-G105                                Issued 2024 April 9, 05:22 UT
     The Minor Planet Electronic Circulars contain information on unusual
         minor planets, routine data on comets and natural satellites,
         and occasional editorial announcements.  They are published
    on behalf of Division F of the International Astronomical Union by the
          Minor Planet Center, Smithsonian Astrophysical Observatory,
                          Cambridge, MA 02138, U.S.A.
			  
             Prepared using the Tamkin Foundation Computer Network
                              MPC at CFA.HARVARD.EDU
            URL https://www.minorplanetcenter.net/    ISSN 1523-6714
                                    2024 GM1                                    
Observations:
     K24G01M* C2024 04 07.35973414 02 26.391+33 55 52.27         20.89wXEG105F52
     K24G01M  C2024 04 07.38579714 02 18.585+33 56 25.41         20.79wXEG105F52
     K24G01M  C2024 04 07.39883314 02 14.613+33 56 41.30         21.45wXEG105F52
     K24G01M  C2024 04 07.51892714 01 36.477+33 58 45.87         20.73GVEG105F52
     K24G01M  C2024 04 07.51957814 01 36.264+33 58 46.47         20.62GVEG105F52
     K24G01M hC2024 04 07.95965513 59 45.49 +34 05 07.4          20.3 GVEG105L01
     K24G01M hC2024 04 07.96470313 59 43.70 +34 05 12.4          20.5 GVEG105L01
     K24G01M hC2024 04 07.96742113 59 42.84 +34 05 15.5          20.7 GVEG105L01
     K24G01M KC2024 04 07.97034813 59 41.92 +34 05 19.1          20.6 GVEG105L01
     K24G01M KC2024 04 08.20510213 58 37.75 +34 09 32.7          20.4 GVEG105H21
     K24G01M KC2024 04 08.20789813 58 36.76 +34 09 36.3          20.4 GVEG105H21
     K24G01M KC2024 04 08.21069213 58 35.77 +34 09 39.7          20.4 GVEG105H21
     K24G01M KC2024 04 08.21348813 58 34.79 +34 09 43.2          20.4 GVEG105H21
     K24G01M KC2024 04 08.21618913 58 33.82 +34 09 46.3          20.7 GVEG105H21
     K24G01M mC2024 04 08.24983513 58 26.087+34 10 34.61         20.57GVEG105I52
     K24G01M mC2024 04 08.25035313 58 25.928+34 10 35.22         20.63GVEG105I52
     K24G01M mC2024 04 08.25333113 58 24.845+34 10 39.58         20.81GVEG105I52
     K24G01M mC2024 04 08.25385713 58 24.668+34 10 40.01         21.07GVEG105I52
     K24G01M 3C2024 04 08.46238813 57 15.444+34 15 12.12         20.25GVEG105T14
     K24G01M 3C2024 04 08.46336713 57 15.061+34 15 13.18         20.30GVEG105T14
     K24G01M 3C2024 04 08.46435313 57 14.666+34 15 14.30         20.33GVEG105T14
     K24G01M 3C2024 04 08.46547713 57 14.227+34 15 15.49         20.43GVEG105T14
     K24G01M 3C2024 04 08.46646413 57 13.837+34 15 16.59         20.47GVEG105T14
     K24G01M 1C2024 04 08.89166 13 54 59.31 +34 21 21.7          20.8 VXEG105033
     K24G01M 1C2024 04 08.89241 13 54 58.97 +34 21 22.7          21.2 VXEG105033
     K24G01M 1C2024 04 08.89317 13 54 58.71 +34 21 23.7          21.0 VXEG105033
     K24G01M KC2024 04 09.16215813 53 23.79 +34 27 01.7          20.7 GVEG105H21
     K24G01M KC2024 04 09.16495513 53 22.62 +34 27 06.1          20.7 GVEG105H21
     K24G01M KC2024 04 09.16775213 53 21.42 +34 27 10.3          20.8 GVEG105H21
Observer details:
033 Karl Schwarzschild Observatory, Tautenburg.  Observers S. Melnikov, C.
    Hogner, F. Ludwig, M. Hartmann, B. Stecklum.  Measurer B. Stecklum.
    1.34-m f/3 Schmidt + CCD.
F52 Pan-STARRS 2, Haleakala.  Observers J. Herman, T. Lowe, P. Minguez, A.
    Schultz, I. Smith.  Measurers K. Chambers, T. de Boer, J. Fairlamb, H.
    Gao, M. Huber, C.-C. Lin, E. Magnier, Y. Ramanjooloo, R. Wainscoat, R.
    Weryk.  1.8-m Ritchey-Chretien + CCD.
H21 Astronomical Research Observatory, Westfield.  Observer R. Holmes.
    Measurers T. Linder, R. Holmes, L. Horn.  0.76-m f/3.0 astrograph + CCD.
I52 Steward Observatory, Mt. Lemmon Station.  Observer J. K. Hogan.  Measurers
    T. Beuden, V. F. Carvajal, D. Fay, J. B. Fazekas, D. C. Fuls, A. R. Gibbs,
    A. D. Grauer, H. Groeller, J. K. Hogan, R. A. Kowalski, S. M. Larson, G.
    J. Leonard, D. Rankin, R. L. Seaman, F. C. Shelly, K. W. Wierzchos.  1.0-m
    prime focus + CCD.
L01 Visnjan Observatory, Tican.  Observer K. Korlevic.  1.0-m f/2.9 reflector
    + CCD.
T14 Canada-France-Hawaii Telescope, Maunakea.  Observers R. Wainscoat, L.
    Wells, T. Burdullis.  Measurers R. Weryk, R. Wainscoat.  3.6-m f/4.1
    reflector + CCD.
Orbital elements:
2024 GM1                                                 Earth MOID = 0.0009 AU
Epoch 2024 Mar. 31.0 TT = JDT 2460400.5                 Veres                   
M 300.05477              (2000.0)            P               Q                  
n   0.79085561     Peri.  253.24677     +0.15771153     +0.98175768             
a   1.1580783      Node    26.53948     -0.79107325     +0.18998082             
e   0.2593889      Incl.   13.75012     -0.59104161     +0.00769111             
P   1.25           H   25.52          G   0.15           U   7                  
Residuals in seconds of arc
240407 F52  0.2+  0.1+    240408 H21  0.1+  0.2+    240408 T14  0.1-  0.0
240407 F52  0.1+  0.0     240408 H21  0.0   0.1+    240408 T14  0.0   0.0
240407 F52  0.3+  0.1-    240408 H21  0.0   0.1+    240408 T14  0.1-  0.0
240407 F52  0.0   0.0     240408 H21  0.2-  0.1-    240408 033  0.3+  0.1-
240407 F52  0.1-  0.1+    240408 I52  0.0   0.0     240408 033  0.3-  0.1-
240407 L01  0.5+  0.7+    240408 I52  0.3+  0.1-    240408 033  0.1+  0.2-
240407 L01  0.9-  0.0     240408 I52  0.0   0.3+    240409 H21  0.1-  0.1-
240407 L01  0.3-  0.1+    240408 I52  0.2+  0.1+    240409 H21  0.1+  0.1+
240407 L01  0.4+  0.5+    240408 T14  0.0   0.0     240409 H21  0.1+  0.2+
240408 H21  0.2+  0.1+    240408 T14  0.0   0.0
Ephemeris:
2024 GM1                 a,e,i = 1.16, 0.26, 14                  q = 0.8577
Date    TT    R. A. (2000) Decl.     Delta      r    Elong.  Phase     V
2024 03 10    14 16 30.4 +28 42 07   0.2380  1.1655   131.8    39.4    24.3
...
2024 03 25    14 21 13.0 +31 15 17   0.1408  1.1023   135.6    39.2    23.0
...
2024 04 02    14 15 33.7 +32 42 33   0.09139 1.0680   136.8    39.9    22.0
...
2024 04 08    13 59 32.2 +34 06 20   0.05523 1.0423   136.9    41.0    20.9
2024 04 09    13 54 15.8 +34 24 28   0.04928 1.0381   136.8    41.3    20.7
2024 04 10    13 47 27.7 +34 44 39   0.04338 1.0338   136.6    41.7    20.4
...
2024 04 16    10 24 04.0 +31 32 00   0.01099 1.0087   117.8    61.6    17.9
...
2024 04 24    03 32 15.7 -27 40 56   0.04242 0.9764    45.5   132.7    24.6
...
2024 05 09    02 55 14.2 -28 51 29   0.1330  0.9226    46.2   127.8    26.5
M. P. C. Staff               (C) Copyright 2024 MPC           M.P.E.C. 2024-G105
    
    
More information about the Iaude
mailing list